Location: Young's Pond
(41.2695°N, 72.7766°W)
Time: 23:22:42
(UTC-04:00)

Spot 4 - Visible Passes

Search period start: 03 August 2015 00:00
Search period end: 13 August 2015 00:00
Orbit: 706 x 724 km, 98.4° (Epoch: 02 August)

Date Brightness Start Highest point End Pass type
(mag) Time Alt. Az. Time Alt. Az. Time Alt. Az.
03 Aug 6.3 00:07:55 13° W 00:08:17 13° W 00:10:20 10° WNW visible
03 Aug 5.3 21:36:51 18° E 21:38:36 23° ENE 21:42:25 10° NNE visible
03 Aug 4.7 23:16:00 40° WSW 23:16:23 41° W 23:20:58 10° NNW visible
04 Aug 4.0 22:24:05 52° ESE 22:24:56 61° ENE 22:29:46 10° N visible
05 Aug 6.2 00:03:14 15° W 00:03:25 15° W 00:05:58 10° WNW visible
05 Aug 5.4 21:32:09 17° E 21:33:52 20° ENE 21:37:28 10° NNE visible
05 Aug 4.5 23:11:18 46° WSW 23:11:34 46° W 23:16:15 10° NNW visible
06 Aug 4.1 22:19:23 48° ESE 22:20:10 54° ENE 22:24:56 10° N visible
06 Aug 6.1 23:58:32 16° W 23:58:34 16° W 00:01:29 10° NW visible
07 Aug 5.5 21:27:28 16° E 21:29:07 19° ENE 21:32:30 10° NNE visible
07 Aug 4.3 23:06:38 52° WSW 23:06:46 52° W 23:11:30 10° NNW visible
08 Aug 4.2 22:14:43 45° E 22:15:25 49° ENE 22:20:06 10° N visible
08 Aug 6.0 23:53:52 18° W 23:53:52 18° W 23:56:58 10° NW visible
09 Aug 5.6 21:22:48 14° E 21:24:22 17° ENE 21:27:30 10° NNE visible
09 Aug 4.2 23:01:57 58° W 23:01:57 58° W 23:06:45 10° NNW visible
10 Aug 4.3 22:10:02 41° E 22:10:38 44° ENE 22:15:15 10° N visible
10 Aug 5.9 23:49:11 20° W 23:49:11 20° W 23:52:23 10° NW visible
11 Aug 5.7 21:18:08 13° E 21:19:38 15° ENE 21:22:27 10° NNE visible
11 Aug 4.1 22:57:17 65° W 22:57:17 65° W 23:02:00 10° NNW visible
12 Aug 4.5 22:05:22 38° E 22:05:52 39° ENE 22:10:23 10° N visible
12 Aug 5.8 23:44:31 22° W 23:44:31 22° W 23:47:46 10° NW visible
